Wind_Speed
13 10 6 3 3 4 3 5 2 4 3 2 11 6 6 4 2 3 20 17 18 16 15 14 15 13 11 10 9 9 9 8 7 8 8 7 7 7 7 6 5 6 7 7 9 10 12 11 11
12 8 6 1 4 2 5 3 5 5 8 19 16 9 6 3 4 17 21 20 17 15 16 16 15 13 11 10 10 8 8 7 6 5 4 4 6 8 9 8 7 8 8 8 8 7 7 7 7
10 8 5 3 4 5 4 4 6 12 11 6 6 7 4 3 11 25 19 22 18 17 17 16 14 12 12 10 8 7 5 4 3 4 5 7 8 9 10 10 10 10 11 11 11 11 11 12 12
7 6 2 4 6 5 5 2 5 10 5 5 14 8 6 5 21 15 23 21 20 19 17 16 14 12 10 9 7 4 3 3 4 5 6 8 9 10 11 12 12 12 13 13 14 14 14 15 15
10 5 3 3 5 4 4 2 11 5 8 11 7 5 7 14 12 22 23 21 19 20 18 15 13 11 9 7 4 3 3 4 5 7 8 9 10 11 12 13 13 14 15 15 16 16 17 17 18
6 2 3 5 6 4 2 11 7 3 7 11 11 9 7 11 18 23 22 21 19 17 16 15 11 9 7 5 2 2 4 5 7 8 10 11 11 12 13 13 14 15 16 17 18 18 19 19 20
4 3 4 7 7 4 4 17 6 6 8 4 17 5 11 19 25 22 21 19 17 14 14 12 9 8 5 3 1 2 4 6 8 9 10 11 11 12 13 14 15 16 17 18 19 19 20 21 21
2 3 3 5 11 7 8 9 11 10 3 15 10 7 9 26 29 25 22 19 17 13 10 10 9 7 5 1 1 3 6 8 8 9 11 12 13 14 15 15 16 17 18 19 20 21 21 21 22
5 3 3 3 8 4 13 5 8 10 16 6 6 12 16 33 31 28 25 22 18 15 12 11 9 8 5 1 1 4 5 7 8 10 12 13 14 15 16 16 17 18 19 20 20 21 22 22 21
4 3 5 2 3 4 12 12 17 9 10 3 7 10 27 34 32 30 27 26 20 16 13 11 10 7 4 2 2 3 5 6 8 10 12 13 14 14 16 17 17 18 19 19 19 20 19 19 19
6 5 3 3 7 8 6 6 9 18 3 12 23 24 33 35 33 31 24 19 16 15 13 11 10 7 4 3 2 4 5 7 9 11 12 12 13 14 15 16 17 17 18 18 19 18 18 18 18
2 8 5 5 11 7 1 13 6 13 7 14 18 25 38 37 35 33 25 24 21 17 13 13 11 8 5 3 3 3 5 7 9 11 11 12 13 14 16 17 18 18 19 19 19 18 18 18 18
1 2 8 7 11 12 5 3 9 12 6 12 21 28 36 35 34 29 21 21 21 18 15 13 11 8 6 4 4 4 5 7 10 11 12 13 14 15 16 17 18 19 20 20 19 19 18 19 18
3 6 8 5 15 6 2 3 6 6 13 20 27 31 35 35 34 29 23 22 23 18 16 15 11 9 7 6 5 5 6 8 9 10 12 13 14 15 16 18 18 19 19 19 19 19 20 20 19
3 1 4 3 7 3 5 2 5 10 19 26 29 31 32 33 31 26 22 21 20 18 16 14 12 10 8 7 6 6 7 8 9 10 12 12 12 14 16 18 18 18 19 19 18 18 18 17 15
2 3 4 3 5 2 3 6 3 15 20 21 21 29 31 30 28 23 20 19 19 18 17 15 13 11 9 8 7 7 7 7 8 9 10 10 12 14 15 17 17 17 18 19 19 19 19 17 14
4 3 3 2 3 2 3 4 3 16 15 16 20 29 29 28 26 22 20 18 19 18 16 15 13 12 11 10 8 8 8 8 8 9 8 9 11 13 15 16 17 18 18 18 18 17 18 16 12
4 1 3 3 3 2 2 2 3 13 18 17 19 27 28 28 28 24 20 19 18 18 16 16 15 14 12 11 10 9 9 8 8 8 7 9 11 13 15 16 17 17 17 16 16 17 17 15 12
3 3 2 1 2 3 2 3 4 10 13 16 21 23 25 27 22 22 21 19 19 18 18 18 16 15 13 12 11 10 10 9 8 8 8 9 12 14 15 16 16 16 16 16 17 17 16 15 10
3 3 2 0 2 3 3 1 1 5 4 17 23 23 25 23 23 23 22 20 19 17 18 18 17 15 14 13 12 11 10 9 8 8 8 11 13 16 17 17 16 15 15 15 15 16 16 14 14
4 5 4 4 3 5 2 2 1 1 2 10 17 22 23 26 26 25 25 23 20 18 17 17 17 16 15 14 14 13 11 10 9 9 10 12 16 17 18 16 15 14 14 14 14 14 15 14 12
5 6 6 5 3 4 5 4 5 5 5 5 18 21 27 27 26 24 24 24 21 19 18 17 16 16 16 16 15 13 12 11 11 11 12 14 17 17 16 15 13 13 13 12 13 13 13 13 11
2 4 4 2 4 4 2 3 6 2 8 8 14 26 28 27 28 25 24 22 21 20 18 16 16 16 16 16 14 13 12 12 12 13 14 16 16 14 15 14 13 12 12 12 12 12 12 12 11
5 2 6 4 3 2 2 4 5 6 7 6 16 27 31 29 28 26 24 23 23 22 19 17 16 16 16 15 14 13 12 12 13 14 15 14 13 13 14 14 14 12 12 12 13 13 12 12 11
3 3 3 3 2 5 2 3 8 4 8 7 16 32 32 30 29 28 28 28 27 24 20 18 16 15 14 14 13 12 12 13 14 14 13 13 14 14 14 14 13 13 13 13 13 14 13 13 12
2 4 5 6 3 3 2 6 6 5 10 13 17 26 30 27 30 30 29 28 28 25 21 18 16 16 14 12 12 12 13 12 12 13 15 16 15 15 14 13 13 13 13 13 14 14 13 13 13
1 3 3 6 3 3 3 7 9 5 8 9 14 18 32 31 27 25 25 26 25 23 20 18 17 15 14 13 12 11 11 12 14 15 15 15 15 15 15 15 15 14 14 14 15 14 13 14 13
3 2 1 2 4 3 4 5 6 5 9 6 8 21 28 32 29 27 26 25 23 21 20 18 17 16 14 13 11 10 12 12 12 13 13 13 13 13 13 14 14 14 14 15 15 15 14 14 13
2 2 1 2 3 4 1 6 6 5 4 8 11 20 24 33 32 29 25 23 22 22 20 19 18 16 13 10 10 11 10 10 9 10 10 10 10 10 10 10 11 11 11 12 13 14 14 14 14
1 4 5 4 3 1 3 6 3 6 6 8 14 18 23 29 29 27 27 27 26 23 21 19 17 14 12 11 10 8 8 8 7 7 7 8 8 9 10 10 10 11 11 11 12 12 13 14 15
Wind_Direction
246 245 263 304 51 64 241 249 238 133 133 144 137 152 156 55 136 184 141 150 156 156 156 153 152 145 140 126 114 106 95 83 76 72 64 49 26 7 354 1 8 3 357 350 350 350 348 346 344
242 227 206 131 104 121 256 245 199 160 125 117 105 99 66 72 92 136 141 148 153 155 150 146 146 143 136 123 113 103 91 82 74 62 37 5 344 336 340 340 333 321 314 310 308 310 309 318 318
223 193 165 138 139 185 221 218 154 128 125 134 106 86 83 103 125 138 144 145 151 150 143 142 141 139 129 119 112 110 94 70 28 3 352 344 341 339 337 335 331 326 323 319 315 310 303 295 291
186 168 122 131 199 242 206 207 163 132 106 133 128 77 90 156 136 143 143 145 149 144 141 138 139 137 128 126 123 107 66 25 358 347 344 341 337 334 333 332 332 329 326 324 322 318 313 308 303
178 155 121 167 220 247 235 211 157 130 133 143 133 141 106 136 138 145 144 146 148 143 141 140 144 140 135 130 117 76 24 3 351 346 342 341 338 336 335 334 331 329 329 328 326 323 319 315 310
175 157 143 193 197 232 238 153 170 113 137 145 121 109 143 166 155 148 147 148 150 149 147 147 148 144 138 132 102 34 7 354 345 342 340 339 338 336 337 334 333 332 330 328 326 322 319 315 311
150 117 214 157 189 199 208 164 161 147 142 184 140 97 144 160 159 154 149 150 150 150 153 154 153 153 150 141 59 355 352 346 342 343 345 345 343 340 338 336 333 331 329 327 324 321 318 315 313
192 110 181 212 185 211 172 146 162 159 141 144 147 149 165 170 163 158 152 154 152 159 164 165 164 165 164 167 339 338 347 345 346 349 351 350 348 341 338 337 336 333 331 331 329 326 323 320 319
153 60 196 208 156 185 163 127 147 156 145 155 173 155 169 165 166 163 159 159 165 172 178 175 176 175 174 185 322 331 344 349 351 353 350 348 346 343 341 342 341 338 335 334 332 330 327 325 324
135 133 219 246 250 231 179 161 152 145 144 134 152 160 165 165 169 169 170 168 175 177 183 182 183 181 184 198 291 321 345 352 350 351 349 348 347 348 345 345 339 340 339 336 336 332 331 331 330
169 186 209 256 344 348 186 148 166 137 219 191 180 159 168 170 174 176 181 182 180 185 188 191 192 193 197 223 277 320 344 346 348 348 349 350 350 350 346 344 344 345 343 342 341 339 337 338 337
174 233 241 296 336 334 239 160 146 162 171 195 185 170 169 176 178 181 186 186 186 188 193 198 196 200 212 240 281 310 333 339 345 345 350 353 351 350 348 351 350 349 348 346 345 343 342 341 343
191 257 242 279 320 338 268 235 175 180 181 175 174 171 175 179 181 183 193 195 193 192 198 199 204 211 222 241 268 298 322 335 342 346 350 354 352 352 354 353 351 352 350 348 347 346 344 345 345
308 273 284 304 310 302 196 156 164 183 164 161 171 175 180 184 184 185 194 199 193 198 201 203 211 220 231 243 263 291 315 332 341 345 349 351 352 356 355 354 355 353 350 350 349 348 347 347 341
243 273 291 222 285 306 161 142 167 169 166 160 171 175 183 186 188 193 198 204 205 207 209 208 216 223 234 246 263 287 310 327 337 341 345 349 352 356 355 354 353 352 352 351 350 348 346 347 348
210 66 159 246 199 210 143 223 145 162 157 157 169 179 185 188 190 196 204 210 209 211 209 211 218 226 235 246 260 281 303 316 328 333 338 345 351 353 351 351 352 353 353 353 350 348 349 354 352
7 196 196 129 208 140 148 219 152 164 162 165 172 183 186 189 194 199 207 215 212 212 210 215 223 230 236 246 260 280 295 306 317 324 329 339 345 345 347 348 350 353 354 353 352 352 352 354 359
190 225 213 168 206 122 129 262 147 176 168 175 175 183 188 195 200 198 204 212 211 211 212 220 227 233 241 250 263 277 287 295 305 312 319 330 335 338 342 345 347 349 350 352 355 357 356 356 0
151 159 152 275 310 115 277 173 187 168 174 172 181 187 196 205 204 196 196 206 209 210 220 227 231 237 245 253 262 274 278 285 293 297 307 320 328 332 335 336 337 341 344 351 355 357 358 357 4
303 217 236 117 22 126 107 102 323 178 199 187 189 200 203 205 196 197 197 198 203 215 224 226 231 240 247 255 265 272 270 275 282 285 298 314 324 326 326 325 326 330 339 345 350 354 358 357 357
243 212 202 185 171 70 124 16 219 251 225 211 213 215 213 210 203 202 202 202 208 218 221 226 234 241 249 258 266 265 264 270 275 275 294 310 318 320 319 319 318 320 328 335 342 351 353 357 358
202 200 177 164 90 167 33 247 263 218 235 226 220 218 221 217 215 213 209 208 214 217 220 227 234 241 249 257 258 257 260 266 269 274 288 306 314 317 319 320 318 315 316 322 334 343 348 350 355
251 15 113 76 78 87 326 64 269 129 234 228 226 219 222 220 217 214 213 215 216 217 223 229 235 242 248 249 249 251 256 267 274 283 294 306 311 313 316 319 317 311 309 312 320 329 336 336 340
146 139 45 65 105 111 170 146 271 204 204 227 223 224 220 218 217 216 216 216 216 219 223 230 236 243 242 239 240 248 261 273 280 288 297 301 303 308 309 313 315 312 307 306 307 311 319 321 320
84 59 27 11 10 215 335 50 244 245 236 219 214 218 217 217 216 216 216 216 217 221 225 232 239 234 229 232 242 256 266 273 283 290 294 297 301 304 306 307 307 308 306 302 301 302 305 307 307
94 139 151 186 171 228 82 236 244 229 247 233 231 229 216 213 214 217 217 216 214 215 222 229 228 223 226 235 246 255 267 276 283 289 296 301 301 301 302 302 303 305 306 303 300 299 299 298 300
212 31 122 107 27 64 219 289 293 237 254 232 226 216 210 206 203 202 200 202 205 211 218 219 217 220 227 236 246 255 266 278 288 293 295 297 300 302 303 302 302 300 299 300 300 300 299 294 298
49 104 13 344 122 219 284 275 235 267 249 231 231 221 212 201 197 195 196 197 201 208 210 210 213 219 224 230 242 261 275 283 288 293 300 304 306 308 308 308 308 305 302 299 299 299 297 293 294
94 198 108 130 133 167 210 261 216 247 242 244 234 225 215 199 196 195 195 198 202 204 206 208 211 215 222 235 252 261 270 280 288 294 299 304 308 312 314 317 318 317 311 306 303 301 298 296 292
106 242 161 123 224 65 144 276 198 228 249 259 238 221 207 198 193 194 196 199 200 204 207 208 210 214 226 236 244 253 262 271 282 294 304 313 323 331 335 337 336 331 325 321 316 310 305 303 299
Height
1520 1521 1522 1522 1532 1534 1536 1527 1518 1519 1521 1521 1522 1525 1528 1531 1532 1544 1538 1543 1546 1549 1551 1553 1556 1558 1559 1560 1561 1562 1563 1563 1563 1563 1563 1563 1562 1561 1561 1560 1559 1558 1557 1556 1555 1554 1553 1552 1552
1519 1520 1523 1522 1537 1544 1536 1519 1518 1516 1519 1521 1522 1526 1528 1534 1533 1535 1539 1543 1547 1550 1552 1554 1557 1559 1560 1561 1563 1564 1564 1564 1564 1564 1563 1563 1562 1561 1561 1560 1558 1557 1556 1555 1554 1553 1552 1551 1550
1517 1519 1522 1525 1536 1540 1532 1516 1515 1516 1518 1519 1524 1528 1530 1534 1534 1537 1539 1543 1547 1551 1553 1555 1558 1560 1561 1562 1564 1564 1564 1564 1564 1564 1563 1562 1562 1561 1560 1559 1558 1556 1555 1554 1553 1552 1551 1550 1549
1516 1519 1522 1527 1531 1523 1517 1513 1513 1515 1518 1520 1522 1528 1532 1533 1536 1537 1541 1545 1548 1551 1554 1556 1559 1561 1562 1563 1564 1565 1565 1564 1565 1564 1563 1562 1561 1560 1559 1557 1556 1555 1554 1553 1552 1550 1549 1548 1547
1515 1516 1525 1528 1524 1516 1512 1511 1516 1514 1517 1519 1521 1530 1533 1535 1537 1539 1542 1546 1549 1552 1555 1557 1560 1561 1562 1564 1565 1565 1565 1565 1565 1564 1563 1562 1560 1559 1558 1557 1555 1554 1553 1551 1550 1549 1547 1546 1544
1514 1514 1523 1528 1520 1513 1510 1510 1512 1515 1518 1520 1523 1527 1534 1536 1538 1540 1544 1547 1550 1553 1555 1558 1560 1562 1563 1564 1565 1566 1565 1565 1564 1564 1562 1561 1560 1558 1557 1556 1554 1553 1552 1550 1548 1547 1545 1543 1542
1512 1516 1517 1516 1517 1512 1509 1509 1512 1516 1519 1521 1522 1528 1533 1535 1538 1541 1544 1548 1552 1554 1557 1559 1561 1562 1564 1565 1565 1566 1565 1565 1564 1563 1562 1561 1560 1558 1556 1555 1553 1552 1550 1548 1546 1544 1542 1540 1538
1512 1513 1513 1512 1512 1513 1507 1509 1510 1514 1519 1521 1522 1525 1532 1533 1537 1541 1545 1549 1552 1555 1557 1559 1561 1562 1564 1565 1565 1566 1565 1565 1564 1563 1561 1560 1558 1557 1555 1554 1552 1550 1548 1546 1544 1542 1540 1537 1535
1510 1518 1518 1508 1512 1506 1505 1507 1511 1513 1515 1519 1522 1523 1524 1531 1536 1540 1544 1548 1552 1555 1557 1559 1561 1562 1563 1564 1565 1566 1565 1565 1564 1562 1561 1560 1558 1556 1554 1552 1550 1548 1546 1544 1542 1539 1537 1534 1532
1509 1518 1513 1506 1505 1502 1501 1502 1508 1513 1516 1518 1521 1523 1525 1531 1535 1538 1542 1546 1551 1555 1557 1560 1562 1562 1563 1564 1565 1565 1564 1564 1564 1562 1560 1559 1557 1555 1554 1551 1550 1547 1545 1543 1540 1537 1534 1532 1530
1507 1513 1507 1505 1504 1502 1502 1503 1505 1508 1517 1512 1513 1518 1525 1530 1534 1539 1544 1548 1552 1555 1557 1560 1561 1562 1563 1564 1564 1565 1564 1564 1563 1562 1560 1559 1557 1555 1553 1551 1549 1546 1544 1541 1539 1536 1533 1531 1528
1507 1505 1505 1504 1504 1503 1502 1501 1505 1506 1507 1509 1514 1518 1522 1528 1532 1537 1542 1546 1550 1554 1557 1559 1561 1562 1563 1563 1564 1564 1563 1563 1561 1561 1560 1558 1557 1554 1552 1549 1547 1544 1542 1540 1537 1534 1532 1529 1527
1506 1504 1504 1505 1503 1502 1501 1500 1501 1505 1506 1509 1513 1518 1524 1529 1533 1539 1543 1547 1549 1552 1555 1558 1560 1561 1562 1563 1563 1563 1562 1562 1560 1560 1559 1557 1556 1554 1551 1549 1546 1543 1541 1538 1536 1533 1530 1528 1526
1507 1505 1503 1503 1503 1501 1502 1501 1502 1506 1506 1508 1512 1517 1523 1528 1532 1537 1541 1544 1548 1552 1554 1556 1558 1560 1561 1562 1562 1562 1562 1561 1560 1559 1558 1556 1554 1552 1550 1548 1545 1543 1540 1537 1535 1532 1529 1527 1524
1505 1504 1503 1502 1503 1502 1501 1504 1504 1504 1507 1508 1513 1517 1522 1528 1532 1537 1541 1544 1547 1550 1553 1555 1557 1559 1560 1561 1561 1561 1561 1560 1559 1558 1557 1555 1554 1552 1550 1547 1545 1542 1539 1537 1534 1531 1529 1526 1523
1503 1504 1510 1501 1501 1501 1502 1508 1503 1505 1507 1509 1513 1516 1522 1527 1532 1536 1541 1543 1546 1549 1551 1554 1556 1557 1559 1559 1560 1560 1560 1559 1558 1557 1556 1554 1553 1551 1549 1547 1544 1542 1539 1536 1533 1530 1528 1525 1523
1509 1513 1508 1502 1500 1500 1502 1505 1503 1503 1508 1510 1512 1516 1521 1527 1531 1534 1538 1542 1545 1548 1550 1552 1554 1556 1556 1557 1558 1558 1559 1558 1557 1556 1554 1553 1552 1550 1548 1546 1543 1541 1538 1535 1532 1530 1527 1524 1522
1513 1511 1506 1503 1502 1500 1503 1505 1504 1505 1505 1510 1513 1516 1520 1524 1527 1531 1536 1540 1543 1546 1548 1550 1552 1553 1554 1555 1556 1557 1557 1556 1555 1554 1553 1552 1550 1549 1547 1544 1542 1540 1537 1535 1532 1529 1526 1523 1522
1508 1506 1506 1503 1501 1501 1507 1507 1505 1505 1507 1510 1513 1516 1519 1522 1527 1530 1534 1537 1540 1543 1546 1548 1549 1551 1552 1553 1554 1555 1555 1554 1553 1552 1551 1550 1549 1547 1545 1543 1541 1538 1536 1534 1531 1528 1526 1524 1522
1512 1507 1505 1503 1501 1501 1506 1509 1508 1507 1507 1507 1510 1515 1517 1522 1525 1528 1530 1534 1537 1541 1543 1544 1546 1548 1549 1551 1551 1552 1552 1552 1551 1550 1549 1548 1547 1545 1543 1541 1539 1537 1535 1533 1531 1528 1526 1524 1521
1512 1512 1508 1505 1502 1503 1506 1511 1509 1507 1507 1509 1511 1513 1517 1520 1521 1524 1527 1530 1534 1537 1539 1541 1543 1545 1546 1547 1548 1549 1549 1549 1549 1548 1548 1547 1545 1543 1541 1539 1537 1535 1534 1532 1530 1528 1526 1524 1523
1509 1504 1503 1502 1509 1519 1514 1521 1514 1510 1509 1508 1508 1511 1514 1517 1520 1523 1525 1527 1530 1533 1536 1538 1540 1542 1543 1544 1545 1546 1546 1546 1546 1546 1546 1544 1542 1540 1538 1537 1535 1534 1532 1531 1529 1527 1526 1524 1523
1503 1504 1505 1509 1517 1514 1516 1534 1512 1510 1509 1506 1505 1506 1508 1512 1516 1519 1522 1525 1528 1530 1533 1535 1537 1538 1540 1541 1542 1543 1543 1544 1544 1543 1543 1541 1540 1538 1536 1535 1533 1532 1531 1530 1528 1527 1525 1524 1523
1501 1508 1511 1518 1525 1534 1529 1532 1519 1509 1499 1499 1498 1499 1502 1506 1511 1515 1518 1521 1524 1527 1530 1532 1534 1535 1536 1537 1539 1540 1540 1541 1541 1540 1540 1539 1537 1536 1534 1532 1531 1530 1529 1528 1526 1525 1524 1523 1522
1502 1507 1540 1542 1545 1533 1549 1538 1504 1494 1492 1489 1488 1490 1496 1501 1506 1509 1512 1515 1519 1523 1526 1528 1530 1531 1533 1535 1536 1537 1537 1537 1537 1536 1536 1535 1534 1533 1532 1530 1529 1527 1526 1525 1523 1523 1522 1521 1520
1509 1510 1528 1535 1556 1534 1534 1521 1500 1485 1484 1484 1485 1487 1492 1495 1499 1502 1507 1511 1515 1519 1522 1524 1526 1528 1530 1532 1533 1533 1533 1533 1533 1532 1532 1531 1530 1529 1528 1526 1525 1524 1523 1522 1520 1519 1519 1518 1517
1508 1513 1516 1533 1546 1540 1529 1507 1488 1483 1482 1480 1480 1482 1485 1489 1493 1498 1503 1507 1511 1515 1518 1520 1523 1525 1527 1528 1529 1529 1530 1530 1529 1529 1528 1527 1526 1525 1524 1523 1522 1521 1520 1519 1518 1517 1516 1516 1515
1508 1511 1517 1530 1532 1527 1524 1517 1503 1481 1478 1479 1478 1477 1479 1484 1490 1495 1499 1504 1508 1512 1514 1517 1520 1521 1523 1524 1525 1526 1526 1526 1526 1525 1525 1524 1523 1522 1521 1520 1518 1517 1516 1515 1513 1514 1513 1512 1511
1515 1519 1518 1521 1523 1529 1537 1513 1484 1480 1475 1476 1474 1476 1478 1481 1485 1491 1497 1502 1505 1508 1511 1513 1515 1517 1519 1521 1522 1522 1522 1523 1522 1522 1521 1520 1519 1518 1517 1516 1515 1514 1513 1511 1510 1510 1509 1509 1507
1507 1506 1508 1523 1510 1545 1542 1508 1473 1473 1473 1472 1471 1473 1476 1481 1485 1490 1494 1497 1500 1504 1507 1510 1512 1515 1517 1517 1518 1519 1519 1520 1519 1519 1519 1518 1518 1516 1515 1514 1513 1512 1511 1509 1507 1507 1506 1506 1505